sat.trackr.live / text

‹ back to catalog

SPACEVAN-001

NORAD 58295 · 2023-174AR

PAYLOAD ACTIVE UNKNOWN

§ Identity

Operator
Country
FR
Launch date
2023-11-11
Launch site
AFWTR
Launch vehicle
Mass (kg)
RCS (m²)

External: N2YO · Heavens-Above · Gunter

§ Orbital elements

Epoch: 2026-09-21T22:01:38.995680Z

Period
92.26 min
Inclination
97.4003°
Eccentricity
0.0007670
Mean motion
15.60890291 rev/d
Perigee alt
379.9 km
Apogee alt
390.3 km
Semi-major
6,763.2 km
B*
3.4210e-4
RAAN
5.9115°
Arg perigee
77.1154°
Mean anomaly
283.0960°
Rev number
16,121

§ Raw data

SPACEVAN-0011 58295U 23174AR  26264.91781245  .00028565  00000+0  34210-3 0  99912 58295  97.4003   5.9115 0007670  77.1154 283.0960 15.60890291161210

JSON: /api/v1/satellites/58295 · /tle

For live sub-satellite position, see the globe view (requires WebGL).

§ Visibility from observer

Set your observer location to see the next 7 days of passes ≥ 10°. The values pass through the URL so the page stays shareable.

No JS? Fill the form by hand. The geolocation button needs JavaScript.

§ Radio — SatNOGS DB

ModeDescriptionDownlinkUplink
FM Mode S - Transmitter 2.272 GHz
FM Mode S - Transmitter 2.289 GHz
FM Telemetry 401.050 MHz

3 transmitters · refreshed weekly from db.satnogs.org